When you browse on this site, cookies collect data to enhance your experience and personalize the content and advertising you see.
Visit our Privacy Policy to learn more. By continuing to use the site, you agree to this use of cookies and data.
  • In Romania
  • List of Countries
  • For 7 days
  • Water Temperature
  • Satellite Maps
  • Weather Map
  • Weather Widgets
  • user-avatar
    Login

    Hourly Weather San Juan

    Today, 24 June, Monday

    Time Temperature Precipitation Wind Pressure Humidity
    00:00 +13°C° 0 mm 1 mps 702 mmHg 65%
    01:00 +13°C° 0 mm 1 mps 702 mmHg 65%
    02:00 +13°C° 0 mm 1 mps 701 mmHg 65%
    03:00 +12°C° 0 mm 1 mps 700 mmHg 66%
    04:00 +12°C° 0 mm 1 mps 700 mmHg 67%
    05:00 +12°C° 0 mm 1 mps 700 mmHg 67%
    06:00 +12°C° 0 mm 1 mps 699 mmHg 67%
    07:00 +12°C° 0 mm 1 mps 699 mmHg 67%
    08:00 +15°C° 0 mm 1 mps 699 mmHg 58%
    09:00 +17°C° 0 mm 2 mps 699 mmHg 48%
    10:00 +20°C° 0 mm 3 mps 698 mmHg 39%
    11:00 +21°C° 0 mm 3 mps 698 mmHg 37%
    12:00 +22°C° 0 mm 3 mps 697 mmHg 34%
    13:00 +22°C° 0 mm 3 mps 696 mmHg 32%
    14:00 +22°C° 0 mm 4 mps 696 mmHg 34%
    15:00 +21°C° 0 mm 5 mps 696 mmHg 37%
    16:00 +20°C° 0 mm 6 mps 696 mmHg 40%
    17:00 +17°C° 0 mm 5 mps 697 mmHg 44%
    18:00 +16°C° 0 mm 5 mps 698 mmHg 48%
    19:00 +15°C° 0 mm 5 mps 699 mmHg 53%
    20:00 +14°C° 0 mm 5 mps 700 mmHg 55%
    21:00 +14°C° 0 mm 6 mps 701 mmHg 56%
    22:00 +12°C° 0 mm 7 mps 702 mmHg 58%
    23:00 +11°C° 0 mm 7 mps 703 mmHg 52%

    Tomorrow, 25 June, Tuesday

    Time Temperature Precipitation Wind Pressure Humidity
    00:00 +9°C° 0 mm 8 mps 704 mmHg 47%
    01:00 +7°C° 0 mm 8 mps 705 mmHg 41%
    02:00 +6°C° 0 mm 7 mps 706 mmHg 38%
    03:00 +6°C° 0 mm 7 mps 706 mmHg 35%
    04:00 +5°C° 0 mm 6 mps 707 mmHg 31%
    05:00 +5°C° 0 mm 5 mps 708 mmHg 32%
    06:00 +5°C° 0 mm 4 mps 708 mmHg 32%
    07:00 +4°C° 0 mm 3 mps 709 mmHg 32%
    08:00 +7°C° 0 mm 3 mps 709 mmHg 28%
    09:00 +8°C° 0 mm 3 mps 709 mmHg 24%
    10:00 +9°C° 0 mm 3 mps 709 mmHg 20%
    11:00 +10°C° 0 mm 3 mps 708 mmHg 20%
    12:00 +10°C° 0 mm 3 mps 707 mmHg 20%
    13:00 +11°C° 0 mm 3 mps 707 mmHg 20%
    14:00 +12°C° 0 mm 2 mps 706 mmHg 20%
    15:00 +12°C° 0 mm 2 mps 706 mmHg 21%
    16:00 +12°C° 0 mm 1 mps 706 mmHg 21%
    17:00 +11°C° 0 mm 1 mps 706 mmHg 23%
    18:00 +9°C° 0 mm 1 mps 706 mmHg 25%
    19:00 +8°C° 0 mm 1 mps 706 mmHg 28%
    20:00 +8°C° 0 mm 1 mps 705 mmHg 28%
    21:00 +8°C° 0 mm 1 mps 705 mmHg 29%
    22:00 +7°C° 0 mm 1 mps 705 mmHg 30%
    23:00 +7°C° 0 mm 1 mps 704 mmHg 29%

    Day after tomorrow, 26 June, Wednesday

    Time Temperature Precipitation Wind Pressure Humidity
    00:00 +6°C° 0 mm 2 mps 703 mmHg 29%
    01:00 +6°C° 0 mm 2 mps 703 mmHg 29%
    02:00 +6°C° 0 mm 2 mps 702 mmHg 30%
    03:00 +5°C° 0 mm 2 mps 702 mmHg 30%
    04:00 +5°C° 0 mm 2 mps 701 mmHg 31%
    05:00 +5°C° 0 mm 2 mps 701 mmHg 32%
    06:00 +5°C° 0 mm 2 mps 701 mmHg 32%
    07:00 +6°C° 0 mm 1 mps 701 mmHg 32%
    08:00 +7°C° 0 mm 2 mps 701 mmHg 28%
    09:00 +9°C° 0 mm 2 mps 701 mmHg 24%
    10:00 +12°C° 0 mm 3 mps 701 mmHg 20%
    11:00 +13°C° 0 mm 3 mps 700 mmHg 19%
    12:00 +14°C° 0 mm 3 mps 699 mmHg 18%
    13:00 +16°C° 0 mm 3 mps 698 mmHg 17%
    14:00 +16°C° 0 mm 3 mps 698 mmHg 17%
    15:00 +16°C° 0 mm 2 mps 698 mmHg 18%
    16:00 +16°C° 0 mm 2 mps 698 mmHg 18%
    17:00 +14°C° 0 mm 2 mps 698 mmHg 21%
    18:00 +12°C° 0 mm 1 mps 699 mmHg 23%
    19:00 +11°C° 0 mm 1 mps 699 mmHg 25%
    20:00 +10°C° 0 mm 1 mps 699 mmHg 26%
    21:00 +10°C° 0 mm 1 mps 699 mmHg 27%
    22:00 +10°C° 0 mm 1 mps 698 mmHg 28%
    23:00 +10°C° 0 mm 1 mps 698 mmHg 28%

    27 June, Thursday

    Time Temperature Precipitation Wind Pressure Humidity
    00:00 +10°C° 0 mm 1 mps 698 mmHg 28%
    01:00 +9°C° 0 mm 2 mps 698 mmHg 29%
    02:00 +8°C° 0 mm 2 mps 697 mmHg 31%
    03:00 +8°C° 0 mm 2 mps 697 mmHg 33%
    04:00 +8°C° 0 mm 1 mps 696 mmHg 35%
    05:00 +8°C° 0 mm 1 mps 696 mmHg 35%
    06:00 +8°C° 0 mm 1 mps 697 mmHg 36%
    07:00 +8°C° 0 mm 1 mps 697 mmHg 37%
    08:00 +11°C° 0 mm 1 mps 697 mmHg 32%
    09:00 +13°C° 0 mm 1 mps 697 mmHg 27%
    10:00 +16°C° 0 mm 1 mps 697 mmHg 22%
    11:00 +17°C° 0 mm 2 mps 697 mmHg 21%
    12:00 +18°C° 0 mm 2 mps 696 mmHg 20%
    13:00 +18°C° 0 mm 3 mps 695 mmHg 19%
    14:00 +18°C° 0 mm 3 mps 695 mmHg 20%
    15:00 +17°C° 0 mm 3 mps 695 mmHg 21%
    16:00 +17°C° 0 mm 3 mps 695 mmHg 21%
    17:00 +16°C° 0 mm 2 mps 695 mmHg 24%
    18:00 +14°C° 0 mm 2 mps 695 mmHg 27%
    19:00 +13°C° 0 mm 1 mps 695 mmHg 30%
    20:00 +12°C° 0 mm 1 mps 695 mmHg 31%
    21:00 +12°C° 0 mm 1 mps 695 mmHg 32%
    22:00 +12°C° 0 mm 1 mps 694 mmHg 33%
    23:00 +11°C° 0 mm 1 mps 694 mmHg 34%

    28 June, Friday

    Time Temperature Precipitation Wind Pressure Humidity
    00:00 +11°C° 0 mm 1 mps 694 mmHg 35%
    01:00 +11°C° 0 mm 1 mps 694 mmHg 36%
    02:00 +10°C° 0 mm 2 mps 694 mmHg 37%
    03:00 +9°C° 0 mm 2 mps 694 mmHg 39%
    04:00 +9°C° 0 mm 2 mps 694 mmHg 40%
    05:00 +9°C° 0 mm 2 mps 694 mmHg 39%
    06:00 +10°C° 0 mm 2 mps 695 mmHg 38%
    07:00 +10°C° 0 mm 3 mps 695 mmHg 38%
    08:00 +14°C° 0 mm 4 mps 696 mmHg 30%
    09:00 +17°C° 0 mm 5 mps 696 mmHg 22%
    10:00 +22°C° 0 mm 6 mps 697 mmHg 14%
    11:00 +23°C° 0 mm 7 mps 696 mmHg 12%
    12:00 +24°C° 0 mm 9 mps 696 mmHg 11%
    13:00 +26°C° 0 mm 10 mps 696 mmHg 10%
    14:00 +23°C° 0 mm 10 mps 697 mmHg 11%
    15:00 +22°C° 0 mm 10 mps 697 mmHg 12%
    16:00 +21°C° 0 mm 11 mps 698 mmHg 13%
    17:00 +17°C° 0 mm 10 mps 700 mmHg 21%
    18:00 +15°C° 0 mm 9 mps 701 mmHg 29%
    19:00 +11°C° 0 mm 7 mps 702 mmHg 38%
    20:00 +10°C° 0 mm 7 mps 703 mmHg 44%
    21:00 +9°C° 0 mm 6 mps 704 mmHg 50%
    22:00 +8°C° 0 mm 5 mps 705 mmHg 56%
    23:00 +7°C° 0 mm 4 mps 705 mmHg 58%

    29 June, Saturday

    Time Temperature Precipitation Wind Pressure Humidity
    00:00 +6°C° 0 mm 4 mps 706 mmHg 60%
    01:00 +7°C° 0 mm 3 mps 706 mmHg 62%
    02:00 +5°C° 0 mm 3 mps 706 mmHg 63%
    03:00 +5°C° 0 mm 3 mps 706 mmHg 64%
    04:00 +4°C° 0 mm 3 mps 706 mmHg 64%
    05:00 +4°C° 0 mm 3 mps 707 mmHg 63%
    06:00 +4°C° 0 mm 3 mps 707 mmHg 61%
    07:00 +3°C° 0 mm 3 mps 708 mmHg 60%
    08:00 +5°C° 0 mm 3 mps 708 mmHg 54%
    09:00 +7°C° 0 mm 3 mps 708 mmHg 48%
    10:00 +7°C° 0 mm 4 mps 709 mmHg 42%
    11:00 +7°C° 0 mm 4 mps 708 mmHg 39%
    12:00 +8°C° 0 mm 4 mps 707 mmHg 36%
    13:00 +10°C° 0 mm 4 mps 707 mmHg 33%
    14:00 +8°C° 0 mm 4 mps 707 mmHg 32%
    15:00 +8°C° 0 mm 4 mps 707 mmHg 32%
    16:00 +8°C° 0 mm 4 mps 707 mmHg 32%
    17:00 +8°C° 0 mm 3 mps 708 mmHg 33%
    18:00 +7°C° 0 mm 3 mps 708 mmHg 35%
    19:00 +6°C° 0 mm 2 mps 709 mmHg 37%
    20:00 +6°C° 0 mm 2 mps 709 mmHg 38%
    21:00 +5°C° 0 mm 2 mps 709 mmHg 40%
    22:00 +5°C° 0 mm 2 mps 709 mmHg 41%
    23:00 +5°C° 0 mm 2 mps 709 mmHg 42%
    Show more